Location: Boiro
(42.6475°N, 8.8834°W)
Time: 17:52:37
(UTC+01:00)

Tiros 1 - Pass Details

Date: 14 December 2021
Orbit: 630 x 663 km, 48.4° (Epoch: 20 January)

Event Time Altitude Azimuth Distance (km) Brightness Sun altitude
Rises 22:21:03 0° 293° (WNW) 2,933 11.2 -46.5°
Enters shadow 22:21:44 - 291° (WNW) 2,677 11.0 -46.6°
Reaches altitude 10° 22:23:30 10° 285° (WNW) 2,027 - -46.9°
Maximum altitude 22:27:47 37° 218° (SW) 995 - -47.7°
Drops below altitude 10° 22:32:07 10° 151° (SSE) 2,038 - -48.5°
Sets 22:34:34 0° 144° (SE) 2,951 - -48.9°
